Location: Chamerau
(49.1969°N, 12.7525°E)
Time: 02:20:42
(UTC+00:00)

DMSP B5D2-2 - Pass Details

Date: 18 September 2020
Orbit: 790 x 806 km, 98.3° (Epoch: 24 October)

Event Time Altitude Azimuth Distance (km) Brightness Sun altitude
Rises 18:38:35 0° 18° (NNE) 3,333 7.3 -14.2°
Reaches altitude 10° 18:41:01 10° 24° (NNE) 2,398 6.5 -14.6°
Maximum altitude 18:46:10 50° 99° (E) 1,023 4.2 -15.4°
Drops below altitude 10° 18:51:17 10° 175° (S) 2,380 6.3 -16.2°
Sets 18:53:40 0° 180° (S) 3,304 7.1 -16.5°
